Billings, MT

1:37 PM MDT on October 18, 2017 (GMT -0600)
Billings Logan International

Weather History for KBIL - July, 2012

Change the Weather History Date:

Tuesday, July 31, 2012

  Actual Average Record
Temperature  
Mean Temperature 81 °F 74 °F  
Max Temperature 96 °F 89 °F 104 °F (1989)
Min Temperature 65 °F 60 °F 47 °F (1968)
Degree Days  
Heating Degree Days 0 0  
Month to date heating degree days 0 12  
Since 1 June heating degree days 35 111  
Since 1 July heating degree days 0 15  
Cooling Degree Days 16 9  
Month to date cooling degree days 419 256  
Year to date cooling degree days 606 358  
Since 1 June cooling degree days 572 341  
Growing Degree Days 30 (Base 50)    
Moisture  
Dew Point 45 °F    
Average Humidity 31    
Maximum Humidity 48    
Minimum Humidity 13    
Precipitation  
Precipitation T in 0.04 in 0.64 in (1998)
Month to date precipitation 0.39 1.32  
Year to date precipitation 4.78 9.30  
Snow  
Snow 0.00 in 0.00 in T in (1998)
Month to date snowfall 0.0 0.0  
Since 1 June snowfall T 0.0  
Since 1 July snowfall 0.0 0.0  
Snow Depth 0.00 in    
Sea Level Pressure  
Sea Level Pressure 29.87 in    
Wind  
Wind Speed 7 mph (East)    
Max Wind Speed 33 mph    
Max Gust Speed 51 mph    
Visibility 10 miles    
Events      
T = Trace of Precipitation, MM = Missing Value Source: NWS Daily Summary

Daily Weather History Graph

Daily Weather History Graph

Search for Another Location

Airport or City:

Trip Planner

Search our weather history database for the weather conditions in past years. The results will help you decide how hot, cold, wet, or windy it might be!

Date:

Astronomy

Jul. 31, 2012 Rise Set
Actual Time 5:56 AM MDT 8:43 PM MDT
Civil Twilight 5:22 AM MDT 9:17 PM MDT
Nautical Twilight 4:38 AM MDT 10:01 PM MDT
Astronomical Twilight 3:46 AM MDT 10:52 PM MDT
Moon 7:34 PM MDT (7/31) 4:20 AM MDT (7/31)
Length of Visible Light 15h 55m
Length of Day
14h 47m
Waxing Gibbous, 97% of the Moon is Illuminated
Jul 31
Waxing Gibbous
Aug 1
Full
Aug 9
Last Quarter
Aug 17
New
Aug 24
First Quarter

Hourly Weather History & Observations

Time (MDT) Temp. Dew Point Humidity Pressure Visibility Wind Dir Wind Speed Gust Speed Precip Events Conditions
12:53 AM 80.1 °F 44.1 °F 28% 29.78 in 10.0 mi NE 13.8 mph - N/A   Partly Cloudy
1:53 AM 78.1 °F 45.0 °F 31% 29.79 in 10.0 mi East 4.6 mph - N/A   Clear
2:53 AM 78.1 °F 45.0 °F 31% 29.80 in 10.0 mi NE 4.6 mph - N/A   Clear
3:53 AM 71.1 °F 44.1 °F 38% 29.81 in 10.0 mi NW 9.2 mph - N/A   Clear
4:53 AM 68.0 °F 45.0 °F 43% 29.84 in 10.0 mi WNW 12.7 mph - N/A   Clear
5:53 AM 66.9 °F 46.0 °F 47% 29.86 in 10.0 mi NW 9.2 mph - N/A   Partly Cloudy
6:53 AM 68.0 °F 46.9 °F 47% 29.89 in 10.0 mi WSW 6.9 mph - N/A   Partly Cloudy
7:53 AM 70.0 °F 48.9 °F 47% 29.92 in 10.0 mi Calm Calm - N/A   Clear
8:53 AM 73.9 °F 50.0 °F 43% 29.93 in 10.0 mi SSW 8.1 mph - N/A   Clear
9:53 AM 78.1 °F 50.0 °F 37% 29.92 in 10.0 mi SSW 10.4 mph - N/A   Clear
10:53 AM 82.9 °F 48.0 °F 29% 29.93 in 10.0 mi SSW 10.4 mph - N/A   Clear
11:53 AM 87.1 °F 46.9 °F 25% 29.91 in 10.0 mi South 8.1 mph - N/A   Clear
12:53 PM 91.4 °F 46.4 °F 21% 30.03 in 10.0 mi ESE 6.9 mph - N/A   Partly Cloudy
1:53 PM 91.0 °F 45.0 °F 20% 29.88 in 10.0 mi Calm Calm - N/A   Partly Cloudy
2:53 PM 93.9 °F 45.0 °F 18% 29.86 in 10.0 mi East 12.7 mph 17.3 mph N/A   Partly Cloudy
3:53 PM 95.0 °F 43.0 °F 17% 29.85 in 10.0 mi East 10.4 mph 18.4 mph N/A   Partly Cloudy
4:53 PM 95.0 °F 39.0 °F 14% 29.84 in 10.0 mi ESE 5.8 mph - N/A   Partly Cloudy
5:53 PM 93.0 °F 36.0 °F 13% 29.83 in 10.0 mi East 8.1 mph - N/A   Scattered Clouds
8:53 PM 84.9 °F 43.0 °F 23% 29.87 in 10.0 mi NE 12.7 mph 21.9 mph N/A   Mostly Cloudy
9:53 PM 82.0 °F 44.1 °F 26% 29.89 in 10.0 mi NW 5.8 mph - N/A   Scattered Clouds
10:53 PM 82.0 °F 45.0 °F 27% 29.89 in 10.0 mi Calm Calm - N/A   Partly Cloudy
11:53 PM 82.0 °F 43.0 °F 25% 29.86 in 10.0 mi Calm Calm - N/A   Partly Cloudy